Regional Weather Roundup
Issued by NWS

Home | Current Version | Previous Version | Text Only | Print | Product List | Glossary On
Versions: 1 2 3 4 5 6 7 8 9 10 11 12 13 14 15 16 17 18 19 20 21 22 23 24 25 26 27 28 29 30 31 32 33 34 35 36 37 38 39 40 41 42 43 44 45 46 47 48 49 50
000
ASUS43 KTOP 270308
RWRKS

WEATHER ROUNDUP FOR KANSAS
NATIONAL WEATHER SERVICE GOODLAND KS
1000 PM CDT FRI AUG 26 2016

NOTE:  "FAIR" INDICATES FEW OR NO CLOUDS BELOW 12,000 FEET WITH NO
SIGNIFICANT WEATHER AND/OR OBSTRUCTIONS TO VISIBILITY.

KSZ001>006-013>018-027>032-041>047-270400-
NORTHWEST KANSAS

CITY           SKY/WX    TMP DP  RH WIND       PRES   REMARKS
GOODLAND       CLOUDY    55  51  86 E5        30.08R
HAYS           CLOUDY    70  59  68 E9        30.03S
HILL CITY      CLOUDY    66  59  78 NW18G25   30.08R
RUSSELL        PTCLDY    68  66  93 E8        30.02S
$$

KSZ061>065-074>080-084>089-270400-
SOUTHWEST KANSAS

CITY           SKY/WX    TMP DP  RH WIND       PRES   REMARKS
DODGE CITY     CLEAR     68  64  87 E5        30.04R
ELKHART          N/A     67  57  70 S12         N/A
GARDEN CITY    CLEAR     69  61  75 E9        30.03R
GREAT BEND     CLEAR     70  61  73 SE6       30.03S
LIBERAL        CLOUDY    73  61  64 SE13      30.03R
PRATT          MOCLDY    70  63  78 E5        30.03S
$$

KSZ066>073-081>083-090>101-270400-
SOUTHEAST KANSAS

CITY           SKY/WX    TMP DP  RH WIND       PRES   REMARKS
CHANUTE        MOCLDY    73  70  90 S7        30.02R
COFFEYVILLE    CLOUDY    76  70  82 SE7       30.02S
HUTCHINSON     CLEAR     71  67  87 NE5       30.02S
MEDICINE LODGE   N/A     75  66  73 SE7       29.98S
NEWTON         MOCLDY    73  68  84 E6        30.04R
PARSONS        CLOUDY    74  69  85 S3        30.03S
WICHITA INTL   PTCLDY    76  67  73 SE6       30.01R
WICHITA JABRA  CLOUDY    73  68  84 E5        30.02R
WICHITA MCCONL PTCLDY    78  67  69 SE14      30.02R
WINFIELD       CLOUDY    74  68  81 SE5       30.03S
$$

KSZ007>012-019>026-033>040-048>060-102>105-270400-
NORTHEAST KANSAS

CITY           SKY/WX    TMP DP  RH WIND       PRES   REMARKS
CONCORDIA      CLOUDY    68  66  93 CALM      30.04S
EMPORIA        CLOUDY    73  67  81 S10       30.04R
LAWRENCE       CLOUDY    71  70  96 N3        30.04R
MANHATTAN      PTCLDY    69  67  93 CALM      30.03R
MARYSVILLE     CLOUDY    68  68 100 CALM      30.05R
OLATHE IND     CLOUDY    72  70  93 CALM      30.05R
OLATHE EXE     CLOUDY   N/A N/A N/A N5        30.05R
SALINA         CLEAR     74  68  81 E5        30.03S
TOPEKA BILLARD CLOUDY    71  69  93 N6        30.04R
TOPEKA FORBES  CLOUDY    73  70  90 N6        30.03R
$$



USA.gov is the U.S. government's official web portal to all federal, state and local government web resources and services.